Regional Weather Roundup
Issued by NWS

Home | Current Version | Previous Version | Graphics & Text | Print | Product List | Glossary On
Versions: 1 2 3 4 5 6 7 8 9 10 11 12 13 14 15 16 17 18 19 20 21 22 23 24 25 26 27 28 29 30 31 32 33 34 35 36 37 38 39 40 41 42 43 44 45 46 47 48 49 50
000
ASUS45 KTFX 292204
RWRMT
MONTANA HOURLY WEATHER ROUNDUP
NATIONAL WEATHER SERVICE GREAT FALLS MT
404 PM MDT TUE JUL 29 2014

NOTE: "FAIR" INDICATES FEW OR NO CLOUDS BELOW 12000 FEET WITH NO
SIGNIFICANT WEATHER AND/OR OBSTRUCTIONS TO VISIBILITY.

* THESE STATIONS ARE NOT UNDER NWS QUALITY CONTROL. THEY DO NOT
   REPORT WEATHER SUCH AS PRECIPITATION OR FOG.

MTZ001>007-043-292300-
WEST OF THE DIVIDE
CITY           SKY/WX    TMP DP  RH WIND       PRES   REMARKS
KALISPELL      SUNNY     93  41  16 SW5       30.08F
MISSOULA       PTCLDY    97  30   9 N15G21    30.09F
BUTTE          PTSUNNY   81  41  24 E16G24    30.26F
MULLAN PASS    PTCLDY    79  37  22 CALM      30.32F
* LINCOLN      N/A       80  40  24 N3G14      N/A
* LOOKOUT PASS N/A       86  40  20 NW2        N/A
* POLSON       N/A       94  42  16 N3         N/A
* RONAN APT    SUNNY     91  48  23 N5         N/A
* SEELEY LAKE  N/A       91  29  11 W6G12      N/A
* THOMP F APT  PTCLDY    76  45  33 S7G13      N/A
* YAAK HILL    N/A      100  44  15 SW1G6      N/A
$$

MTZ008-052>055-292300-
SOUTHWEST MONTANA
CITY           SKY/WX    TMP DP  RH WIND       PRES   REMARKS
BOZEMAN        PTCLDY    88  46  23 NE16G22   30.18F
DILLON         CLOUDY    81  48  32 N14       30.21S
W YELLOWSTONE  CLOUDY    72  48  43 W5        30.34S
* THREE FORKS  PTCLDY    90  52  27 N/A        N/A
* BOULDER HILL N/A       81  41  24 N8G16      N/A
* MONIDA PASS  N/A       75  40  28 E11G16     N/A
* RAYNOLDS PAS N/A       61  32  34 E8         N/A
* WHITEHALL    N/A       89  46  23 W5G10      N/A
* WISE RIVER   N/A       82  38  21 E7G15      N/A
$$

MTZ009>010-012-014-046-048-049-054-292300-
EAST SLOPES AND CENTRAL MONTANA
CITY           SKY/WX    TMP DP  RH WIND       PRES   REMARKS
CUT BANK       SUNNY     88  43  21 NE6       30.18F
GREAT FALLS    PTCLDY    91  39  16 VRB6      30.15F
HELENA         PTCLDY    93  37  14 VRB6      30.13F
MALMSTROM AFB  PTCLDY    90  43  19 E20G29    30.15F
* CONRAD       PTCLDY    90  52  27 N/A        N/A
* DEARBORN     N/A       89  47  23 NE12G18    N/A
* EAST GLACIER N/A       83  49  31 SE9G14     N/A
* MONARCH      N/A       83  42  23 NE9G17     N/A
* ROGERS PASS  N/A       83  41  23 W3         N/A
* SAINT MARY   N/A       89  41  19 E5G12      N/A
* SWEET GRASS  N/A       89  38  17 SW9        N/A
$$

MTZ011-013-016-021-035-040-045-047-050-051-292300-
NORTH CENTRAL MONTANA
CITY           SKY/WX    TMP DP  RH WIND       PRES   REMARKS
HAVRE          SUNNY     97  43  16 E9        30.11F
LEWISTOWN      PTCLDY    88  39  18 E13       30.21F
* CHESTER      N/A       89  38  17 E4G11      N/A
* DENTON       N/A       91  48  23 NE7G14     N/A
* GEYSER       N/A       87  48  26 NE12G17    N/A
* JUDITH GAP   N/A       83  50  32 S1G15      N/A
* LOMA         N/A       92  41  17 VRB7G13    N/A
$$

MTZ017>020-022>027-061-062-292300-
NORTHEAST MONTANA
CITY           SKY/WX    TMP DP  RH WIND       PRES   REMARKS
GLASGOW        SUNNY     91  43  19 NE10      30.15F
GLENDIVE       SUNNY     88  41  19 N13G22    30.17F
JORDAN         SUNNY     91  41  17 E14       30.16F
SIDNEY         SUNNY     86  52  31 NE14      30.16F
WOLF POINT     SUNNY     90  45  21 NE12G23   30.15F
* BEAVER HILL  N/A       83  42  23 NW14G20    N/A
* CIRCLE       N/A       88  47  24 NW5G13     N/A
* LINDSAY DVD  N/A       84  41  22 N11G21     N/A
$$

MTZ028>042-056>058-292300-
SOUTHCENTRAL AND SOUTHEAST MONTANA
CITY           SKY/WX    TMP DP  RH WIND       PRES   REMARKS
BAKER          SUNNY     82  45  27 NW7       30.19F
BILLINGS       PTCLDY    88  46  23 E6        30.17F
LIVINGSTON     PTSUNNY   84  45  26 NE17      30.20F
MILES CITY     SUNNY     88  45  22 E10       30.16F
* LAUREL APT   PTCLDY    88  48  25 E6         N/A
* ROUNDUP APT  SUNNY     88  43  21 NE8        N/A
* ALZADA       N/A       83  42  23 N4G11      N/A
* HYSHAM       N/A       89  46  23 E11G18     N/A
* LAME DEER    N/A       81  39  22 N9G15      N/A
* REED POINT   N/A       91  52  26 NE8G14     N/A
* ROSCOE HILL  N/A       81  46  29 NE9G14     N/A
$$

REGIONAL REPORTS...DAKOTAS
CITY           SKY/WX    TMP DP  RH WIND       PRES   REMARKS
WILLISTON      SUNNY     84  50  31 N12G18    30.16F
DICKINSON      PTCLDY    82  50  33 VRB5      30.14F
CROSBY         SUNNY     77  59  54 N5        30.18F
TIOGA          SUNNY     77  55  47 N8        30.20F
WATFORD CITY   SUNNY     82  52  35 NW5G17    30.14S
BISMARCK       PTSUNNY   81  55  41 SW8       30.16F HI  81
GRAND FORKS    SUNNY     79  55  44 NW6       30.11F
FARGO          PTCLDY    81  54  39 N13G23    30.12F
BUFFALO SD     PTCLDY    82  50  33 VRB3      30.14F
RAPID CITY     PTSUNNY   72  57  59 SE9       30.23F
$$

REGIONAL REPORTS...WYOMING/IDAHO/WASHINGTON
CITY           SKY/WX    TMP DP  RH WIND       PRES   REMARKS
GILLETTE       CLOUDY    68  57  68 W8        30.27F
SHERIDAN       CLOUDY    82  46  28 S14       30.23S
YELLOWSTONE LA CLOUDY    66  48  52 SE6       30.45F
SALMON         PTSUNNY  N/A N/A N/A SE22G32   30.06S
MULLAN PASS    PTCLDY    79  37  22 CALM      30.32S
SAND POINT     SUNNY     91  50  25 E5        30.04F
SPOKANE        SUNNY     97  39  13 VRB3      30.04F

$$




USA.gov is the U.S. government's official web portal to all federal, state and local government web resources and services.